Zurück zum Katalog

CZ-6A DEB

AktivPO
NORAD 60881·DEBRIS·🇨🇳 China

Gestartet Aug 6, 2024 von Taiyuan Satellite Launch Center

Loading…

Nächste Überflüge (nächste 24 Stunden)

TLE

AktuellSource: Space-Track

Epoche: Sep 14, 2026, 07:51 UTC

1 60881U 24140KL  26257.32772381  .00000995  00000-0  41774-3 0  9998
2 60881  88.9960 264.1130 0030883 240.1248 119.6875 14.24929406105896

Verfolge CZ-6A DEB in Echtzeit mit AllMySat

Download on the App Store